Location: Keeler
(32.5379°N, 97.3678°W)
Time: 04:46:57
(UTC+00:00)

Daily predictions for brighter satellites

Satellite Brightness Start Highest point End
(mag) Time Altitude Azimuth Time Altitude Azimuth Time Altitude Azimuth
Sakura Rocket 4.4 00:00:12 10° SW 00:04:06 27° SSE 00:07:25 10° ESE
NOSS 2-3 (D) 3.1 00:00:11 10° SSW 00:04:08 86° ESE 00:07:48 10° NNE
COSMO-SKYMED 1 3.5 00:05:21 10° NE 00:08:46 25° E 00:12:09 10° SSE
Cosmos 2263 Rocket 3.8 00:06:04 10° NNE 00:08:47 13° NE 00:10:29 12° ENE
Thor Agena Rocket 3.9 00:05:26 10° S 00:10:38 71° WSW 00:15:49 10° NNW
Cosmos 1733 4.5 00:11:20 10° WNW 00:12:04 12° W 00:12:49 10° WSW
Cosmos 1726 Rocket 3.6 00:15:19 10° S 00:19:54 70° E 00:24:32 10° NNE
Cosmos 2227 Rocket 2.8 00:17:28 10° N 00:22:28 32° ENE 00:27:27 10° SE
SAR-Lupe-4 3.6 00:19:11 10° S 00:22:43 83° WSW 00:26:17 10° NNW
Okean 1-7 Rocket 3.4 00:18:44 10° N 00:23:07 76° E 00:27:26 10° S
IRS-1C 4.2 00:20:04 10° SSE 00:25:22 86° WSW 00:30:43 10° NNW
ATLAS 5 CENTAUR R/B 4.2 00:21:20 10° SSW 00:26:58 84° ESE 00:51:03 10° NE
USA 290 2.4 00:25:11 10° NNW 00:28:25 73° WSW 00:31:39 10° S
Cosmos 1697 Rocket 3.6 00:24:34 10° SW 00:29:58 49° WNW 00:35:24 10° N
CZ-2D R/B 3.4 00:28:03 10° S 00:31:08 56° W 00:34:12 10° NNW
SAR-Lupe-1 4.3 00:28:29 10° S 00:32:03 73° WSW 00:35:39 10° NNW
ATLAS CENTAUR R/B 1.0 00:29:57 10° NW 00:33:04 64° WSW 00:36:04 10° SSE
YAOGAN 1 3.2 00:29:52 10° SE 00:33:35 30° ENE 00:37:19 10° N
SKYMED 2 3.5 00:30:29 10° NNE 00:34:50 89° E 00:39:10 10° SSW
Cosmos 724 4.2 00:29:45 10° NNW 00:35:45 77° ENE 00:41:33 10° SSE
H-II Stage 2 3.7 00:26:34 10° W 00:38:08 46° SSW 00:41:02 13° SE
Meteor 2-20 4.4 00:32:37 10° S 00:38:46 78° E 00:44:56 10° N
Cosmos 1898 Rocket 3.6 00:35:50 10° S 00:40:47 51° ESE 00:44:15 19° NE
OAO 1 4.5 00:39:09 10° WSW 00:44:40 83° NNW 00:47:33 29° ENE
Cosmos-2242 2.9 00:43:56 10° S 00:48:04 58° E 00:50:38 22° NNE
Cosmos 1953 Rocket 3.4 00:51:51 10° N 00:56:16 71° E 01:00:41 10° SSE
Meteor 2-10 4.3 00:51:04 10° N 00:56:19 48° E 01:01:42 10° SSE
EXPRESS MD2 4.5 00:56:02 10° W 00:58:09 22° NNW 00:58:35 21° NNW
BREEZE-M DEB (TANK) 4.3 00:56:04 10° W 00:59:52 22° NW 01:00:59 18° N
Helios 1A Rocket 2.4 00:59:45 44° N 01:00:43 82° WNW 01:04:05 10° SSW
Meteor 2-20 Rocket 4.4 00:54:28 10° S 01:00:50 83° E 01:06:59 10° N
Cosmos 372 Rocket 4.1 00:56:49 10° SSW 01:01:59 74° WNW 01:06:00 17° N
Cosmos 1937 Rocket 3.4 00:57:19 10° S 01:02:25 60° ESE 01:04:15 38° NE
Meteor 1-26 Rocket 4.0 00:57:37 10° S 01:03:04 81° E 01:07:43 14° N
Cosmos 1655 Rocket 4.0 00:58:57 10° N 01:05:11 82° W 01:11:23 10° S
Aureole 1 Rocket 3.6 01:01:35 10° SSW 01:05:22 54° WNW 01:09:04 16° N
Cosmos 1867 3.4 01:00:20 10° NNW 01:05:47 74° ENE 01:11:11 10° SSE
Cosmos 967 Rocket 4.4 01:05:57 10° SSW 01:12:12 72° ESE 01:14:48 38° NE
SL-16 R/B 3.6 01:07:42 10° SSE 01:10:22 22° SE 01:10:22 22° SE
Cosmos 2297 Rocket 4.0 01:10:11 10° NW 01:15:08 32° WSW 01:20:03 10° SSW
OceanSat 1 rocket 4.4 01:12:03 10° SSE 01:16:48 74° ENE 01:21:32 10° N
Cosmos 2058 Rocket 3.8 01:12:52 10° SSW 01:17:13 53° W 01:20:44 15° N
NOAA 6 3.9 01:12:33 10° SSE 01:17:36 67° ENE 01:22:39 10° N
USA 81 4.3 01:19:13 10° N 01:24:27 69° W 01:29:39 10° S
BREEZE-M DEB (TANK) 4.4 01:20:15 10° S 01:24:47 37° ESE 01:24:47 37° ESE
BlueWalker 3 3.9 01:23:24 10° WNW 01:26:28 26° SW 01:28:00 19° SSW
Hubble Space Telescope 2.1 01:26:52 10° WSW 01:29:22 31° SSW 01:29:22 31° SSW
PSLV R/B 4.0 01:28:43 10° S 01:32:38 54° W 01:33:07 50° WNW
Cosmos 1980 Rocket 3.7 01:27:40 10° SW 01:32:44 33° WNW 01:36:57 14° N
Cosmos 2084 Rocket 4.3 01:31:46 10° NW 01:35:47 45° WSW 01:36:16 43° SW
CZ-4C R/B 3.6 01:33:03 10° NW 01:40:48 62° WSW 01:49:46 10° SSE
Cosmos 2369 4.3 01:35:58 10° SW 01:41:32 53° WNW 01:43:36 35° NNW
BREEZE M DEB (TANK) 4.1 01:41:09 10° NW 01:43:48 27° NW 01:43:48 27° NW
Cosmos 2263 Rocket 2.5 01:47:34 10° NNW 01:52:20 61° NW 01:52:20 61° NW
COSMOS 2455 3.0 01:50:46 10° SSW 01:56:21 71° WSW 01:56:21 71° WSW
Cosmos 2333 Rocket 4.2 01:59:59 10° S 02:01:21 18° S 02:01:21 18° S
Cosmos 2227 Rocket 4.0 02:01:35 10° NW 02:06:18 28° WSW 02:11:00 10° SSW
Centaur D-1A AC-31 4.3 02:34:10 10° WNW 03:23:56 42° SW 03:24:39 42° SW
CZ-3 R/B 4.0 08:33:10 10° W 09:25:24 76° SSW 09:37:19 10° ESE
CZ-3 Stage 3 3.7 10:07:38 82° S 10:07:38 82° S 10:35:41 10° E
Cosmos 1980 Rocket 3.2 10:32:10 41° ESE 10:32:10 41° ESE 10:36:14 10° SE
Cosmos 2142 Rocket 4.5 10:56:53 44° N 10:58:58 78° E 11:05:07 10° S
COSMOS 2455 3.7 10:59:43 31° N 11:02:12 47° ENE 11:07:56 10° SE
SL-24 R/B - RUBIN 2 4.4 11:05:51 45° SE 11:05:51 45° SE 11:08:59 10° SSE
Cosmos 489 Rocket 4.3 11:06:46 56° SW 11:08:07 75° WNW 11:14:25 10° NNE
Nadezhda 4 Rocket 3.9 11:05:24 10° S 11:11:43 88° W 11:18:02 10° N
Cosmos 1898 Rocket 4.1 11:10:27 30° N 11:12:50 54° ENE 11:17:58 10° SSE
H-II Stage 2 4.2 11:15:27 33° S 11:15:27 33° S 11:17:47 10° SE
Cosmos 2098 Rocket 3.8 11:17:16 57° SW 11:17:16 57° SW 11:22:04 10° S
Cosmos 1933 3.7 11:19:08 55° SE 11:19:08 55° SE 11:22:22 10° SSE
IRS-1D 3.7 11:14:46 10° NNE 11:19:47 68° ESE 11:24:54 10° S
OAO 2 Rocket 3.7 11:23:47 44° SW 11:25:13 61° SSE 11:30:17 10° E
Cosmos 372 Rocket 3.7 11:30:24 47° NNW 11:31:53 77° WSW 11:36:54 10° S
Cosmos 1937 Rocket 3.9 11:29:56 18° N 11:33:43 60° ENE 11:38:46 10° SSE
Meteor 2-3 Rocket 3.6 11:32:41 10° SSW 11:38:25 75° W 11:44:08 10° N
Aureole 1 Rocket 4.3 11:35:17 22° NNW 11:40:16 63° WSW 11:47:29 10° S
COSMOS 2406 3.8 11:44:05 34° NW 11:44:05 34° NW 11:48:42 10° N
Cosmos 1606 Rocket 3.4 11:42:54 34° NNW 11:44:44 66° W 11:49:03 10° S
Cosmos 2237 4.2 11:41:41 18° NNW 11:46:03 85° ENE 11:51:44 10° SSE
OAO 3 Copernicus 4.2 11:45:52 40° W 11:47:38 75° N 11:52:38 10° ENE
CZ-4 R/B 3.6 11:43:15 10° N 11:47:50 69° WNW 11:52:25 10° SSW
Centaur D AC-28 3.9 11:46:18 21° W 11:50:23 29° SW 11:54:28 10° SSE
ATLAS 2AS CENTAUR R/B 3.8 11:44:26 10° S 11:51:13 48° ESE 11:57:51 10° NE
Tiangong -2.0 11:51:40 56° NNW 11:52:05 64° NNE 11:55:17 10° ESE
Centaur D-1AR AC-48 4.2 11:35:23 14° WSW 11:52:09 42° SSW 11:57:05 10° ESE
Cosmos 1814 Rocket 4.3 11:47:06 10° S 11:52:15 71° ESE 11:57:29 10° NNE
